When you browse on this site, cookies collect data to enhance your experience and personalize the content and advertising you see.
Visit our Privacy Policy to learn more. By continuing to use the site, you agree to this use of cookies and data.
  • In Schweiz
  • Länderverzeichnis
  • Für 7 Tage
  • Wassertemperatur
  • Satellitenkarten
  • Wetterkarte
  • Widgets
  • user-avatar
    Anmelden

    Stündliche Wetter Batken

    Heute, 17 Juni, Montag

    Zeit Temperatur Niederschläge Wind Luftdruck Luftfeuchtigkeit
    00:00 +22°C° 0 mm 1 m/S 669 mmHg 40%
    01:00 +22°C° 0 mm 1 m/S 669 mmHg 41%
    02:00 +21°C° 0 mm 1 m/S 669 mmHg 41%
    03:00 +20°C° 0 mm 2 m/S 669 mmHg 41%
    04:00 +20°C° 0 mm 2 m/S 669 mmHg 42%
    05:00 +19°C° 0 mm 2 m/S 669 mmHg 43%
    06:00 +21°C° 0 mm 2 m/S 669 mmHg 37%
    07:00 +24°C° 0 mm 2 m/S 670 mmHg 32%
    08:00 +25°C° 0 mm 1 m/S 670 mmHg 27%
    09:00 +26°C° 0 mm 2 m/S 670 mmHg 26%
    10:00 +27°C° 0 mm 2 m/S 670 mmHg 25%
    11:00 +28°C° 0 mm 3 m/S 670 mmHg 24%
    12:00 +29°C° 0 mm 3 m/S 670 mmHg 24%
    13:00 +29°C° 0 mm 3 m/S 670 mmHg 23%
    14:00 +30°C° 0 mm 3 m/S 669 mmHg 23%
    15:00 +30°C° 0.1 mm 3 m/S 669 mmHg 23%
    16:00 +30°C° 0.1 mm 3 m/S 669 mmHg 23%
    17:00 +30°C° 0.1 mm 2 m/S 669 mmHg 23%
    18:00 +28°C° 0.1 mm 2 m/S 669 mmHg 27%
    19:00 +27°C° 0.1 mm 2 m/S 669 mmHg 31%
    20:00 +26°C° 0.1 mm 2 m/S 668 mmHg 36%
    21:00 +25°C° 0 mm 2 m/S 668 mmHg 38%
    22:00 +24°C° 0 mm 2 m/S 668 mmHg 40%
    23:00 +24°C° 0 mm 1 m/S 668 mmHg 42%

    Morgen, 18 Juni, Dienstag

    Zeit Temperatur Niederschläge Wind Luftdruck Luftfeuchtigkeit
    00:00 +23°C° 0.1 mm 2 m/S 668 mmHg 42%
    01:00 +23°C° 0.1 mm 2 m/S 668 mmHg 42%
    02:00 +21°C° 0.1 mm 2 m/S 668 mmHg 42%
    03:00 +21°C° 0.1 mm 2 m/S 668 mmHg 44%
    04:00 +20°C° 0.1 mm 2 m/S 668 mmHg 46%
    05:00 +20°C° 0.1 mm 2 m/S 668 mmHg 48%
    06:00 +21°C° 0.2 mm 2 m/S 668 mmHg 42%
    07:00 +24°C° 0.2 mm 2 m/S 668 mmHg 36%
    08:00 +25°C° 0.2 mm 2 m/S 669 mmHg 30%
    09:00 +26°C° 0.1 mm 3 m/S 669 mmHg 28%
    10:00 +27°C° 0.1 mm 3 m/S 669 mmHg 27%
    11:00 +28°C° 0.1 mm 4 m/S 669 mmHg 25%
    12:00 +29°C° 0.1 mm 4 m/S 669 mmHg 25%
    13:00 +29°C° 0.1 mm 4 m/S 669 mmHg 24%
    14:00 +30°C° 0.1 mm 4 m/S 669 mmHg 24%
    15:00 +30°C° 0.2 mm 5 m/S 669 mmHg 24%
    16:00 +29°C° 0.2 mm 5 m/S 669 mmHg 25%
    17:00 +29°C° 0.2 mm 6 m/S 668 mmHg 26%
    18:00 +28°C° 0.3 mm 5 m/S 668 mmHg 31%
    19:00 +26°C° 0.3 mm 5 m/S 668 mmHg 37%
    20:00 +23°C° 0.3 mm 4 m/S 668 mmHg 42%
    21:00 +23°C° 0.1 mm 4 m/S 668 mmHg 43%
    22:00 +22°C° 0.1 mm 3 m/S 668 mmHg 44%
    23:00 +22°C° 0.1 mm 3 m/S 668 mmHg 44%

    übermorgen, 19 Juni, Mittwoch

    Zeit Temperatur Niederschläge Wind Luftdruck Luftfeuchtigkeit
    00:00 +23°C° 0 mm 2 m/S 668 mmHg 45%
    01:00 +23°C° 0 mm 2 m/S 668 mmHg 45%
    02:00 +23°C° 0 mm 2 m/S 668 mmHg 45%
    03:00 +21°C° 0 mm 2 m/S 668 mmHg 45%
    04:00 +21°C° 0 mm 2 m/S 667 mmHg 45%
    05:00 +20°C° 0 mm 2 m/S 667 mmHg 44%
    06:00 +23°C° 0 mm 2 m/S 668 mmHg 39%
    07:00 +24°C° 0 mm 2 m/S 668 mmHg 35%
    08:00 +25°C° 0 mm 2 m/S 668 mmHg 30%
    09:00 +26°C° 0 mm 2 m/S 668 mmHg 29%
    10:00 +27°C° 0 mm 3 m/S 668 mmHg 28%
    11:00 +27°C° 0 mm 3 m/S 668 mmHg 27%
    12:00 +28°C° 0 mm 3 m/S 668 mmHg 27%
    13:00 +28°C° 0 mm 3 m/S 668 mmHg 27%
    14:00 +29°C° 0 mm 3 m/S 668 mmHg 26%
    15:00 +29°C° 0.1 mm 4 m/S 668 mmHg 26%
    16:00 +29°C° 0.1 mm 5 m/S 668 mmHg 27%
    17:00 +28°C° 0.1 mm 6 m/S 668 mmHg 27%
    18:00 +27°C° 0 mm 5 m/S 669 mmHg 30%
    19:00 +26°C° 0 mm 4 m/S 669 mmHg 32%
    20:00 +25°C° 0 mm 3 m/S 669 mmHg 35%
    21:00 +25°C° 0 mm 2 m/S 669 mmHg 37%
    22:00 +24°C° 0 mm 2 m/S 669 mmHg 39%
    23:00 +23°C° 0 mm 2 m/S 669 mmHg 40%

    20 Juni, Donnerstag

    Zeit Temperatur Niederschläge Wind Luftdruck Luftfeuchtigkeit
    00:00 +23°C° 0 mm 1 m/S 668 mmHg 41%
    01:00 +23°C° 0 mm 1 m/S 668 mmHg 42%
    02:00 +22°C° 0 mm 1 m/S 668 mmHg 43%
    03:00 +22°C° 0 mm 1 m/S 668 mmHg 43%
    04:00 +21°C° 0 mm 1 m/S 668 mmHg 44%
    05:00 +21°C° 0 mm 1 m/S 668 mmHg 45%
    06:00 +22°C° 0 mm 1 m/S 668 mmHg 40%
    07:00 +24°C° 0 mm 1 m/S 669 mmHg 35%
    08:00 +25°C° 0 mm 1 m/S 669 mmHg 30%
    09:00 +26°C° 0 mm 1 m/S 669 mmHg 29%
    10:00 +27°C° 0 mm 2 m/S 669 mmHg 28%
    11:00 +28°C° 0 mm 2 m/S 669 mmHg 27%
    12:00 +29°C° 0.1 mm 2 m/S 669 mmHg 26%
    13:00 +29°C° 0.1 mm 2 m/S 669 mmHg 25%
    14:00 +30°C° 0.1 mm 2 m/S 668 mmHg 25%
    15:00 +30°C° 0.1 mm 2 m/S 668 mmHg 24%
    16:00 +30°C° 0.1 mm 2 m/S 668 mmHg 24%
    17:00 +31°C° 0.1 mm 2 m/S 668 mmHg 23%
    18:00 +29°C° 0.1 mm 2 m/S 668 mmHg 27%
    19:00 +28°C° 0.1 mm 2 m/S 669 mmHg 30%
    20:00 +27°C° 0.1 mm 2 m/S 669 mmHg 33%
    21:00 +26°C° 0 mm 2 m/S 669 mmHg 35%
    22:00 +25°C° 0 mm 2 m/S 669 mmHg 37%
    23:00 +25°C° 0 mm 2 m/S 669 mmHg 38%

    21 Juni, Freitag

    Zeit Temperatur Niederschläge Wind Luftdruck Luftfeuchtigkeit
    00:00 +24°C° 0 mm 2 m/S 668 mmHg 39%
    01:00 +24°C° 0 mm 2 m/S 668 mmHg 39%
    02:00 +23°C° 0 mm 2 m/S 668 mmHg 39%
    03:00 +23°C° 0 mm 1 m/S 668 mmHg 40%
    04:00 +22°C° 0 mm 1 m/S 668 mmHg 41%
    05:00 +22°C° 0 mm 1 m/S 668 mmHg 41%
    06:00 +24°C° 0 mm 1 m/S 668 mmHg 36%
    07:00 +26°C° 0 mm 1 m/S 669 mmHg 31%
    08:00 +27°C° 0 mm 1 m/S 669 mmHg 25%
    09:00 +28°C° 0 mm 2 m/S 669 mmHg 24%
    10:00 +29°C° 0 mm 2 m/S 669 mmHg 23%
    11:00 +30°C° 0 mm 3 m/S 669 mmHg 22%
    12:00 +31°C° 0 mm 3 m/S 669 mmHg 22%
    13:00 +31°C° 0 mm 3 m/S 669 mmHg 21%
    14:00 +32°C° 0 mm 2 m/S 669 mmHg 21%
    15:00 +32°C° 0 mm 2 m/S 669 mmHg 21%
    16:00 +32°C° 0 mm 2 m/S 669 mmHg 20%
    17:00 +32°C° 0 mm 2 m/S 669 mmHg 20%
    18:00 +31°C° 0 mm 2 m/S 668 mmHg 24%
    19:00 +30°C° 0 mm 2 m/S 668 mmHg 27%
    20:00 +28°C° 0 mm 3 m/S 668 mmHg 31%
    21:00 +28°C° 0 mm 2 m/S 668 mmHg 32%
    22:00 +27°C° 0 mm 2 m/S 668 mmHg 33%
    23:00 +26°C° 0 mm 2 m/S 668 mmHg 33%

    22 Juni, Samstag

    Zeit Temperatur Niederschläge Wind Luftdruck Luftfeuchtigkeit
    00:00 +26°C° 0 mm 2 m/S 668 mmHg 34%
    01:00 +25°C° 0 mm 2 m/S 667 mmHg 34%
    02:00 +25°C° 0 mm 2 m/S 667 mmHg 34%
    03:00 +24°C° 0 mm 2 m/S 667 mmHg 35%
    04:00 +24°C° 0 mm 2 m/S 667 mmHg 36%
    05:00 +23°C° 0 mm 1 m/S 667 mmHg 37%
    06:00 +25°C° 0 mm 2 m/S 668 mmHg 33%
    07:00 +27°C° 0 mm 2 m/S 669 mmHg 28%
    08:00 +29°C° 0 mm 2 m/S 669 mmHg 24%
    09:00 +29°C° 0 mm 2 m/S 669 mmHg 23%
    10:00 +30°C° 0 mm 3 m/S 669 mmHg 22%
    11:00 +31°C° 0 mm 3 m/S 669 mmHg 21%
    12:00 +33°C° 0 mm 3 m/S 669 mmHg 21%
    13:00 +33°C° 0 mm 3 m/S 669 mmHg 21%
    14:00 +34°C° 0 mm 3 m/S 669 mmHg 21%
    15:00 +33°C° 0.1 mm 4 m/S 669 mmHg 22%
    16:00 +33°C° 0.1 mm 5 m/S 669 mmHg 23%
    17:00 +33°C° 0.1 mm 5 m/S 669 mmHg 23%
    18:00 +32°C° 0.1 mm 5 m/S 669 mmHg 27%
    19:00 +29°C° 0.1 mm 4 m/S 669 mmHg 31%
    20:00 +28°C° 0.1 mm 4 m/S 669 mmHg 34%
    21:00 +27°C° 0 mm 3 m/S 669 mmHg 36%
    22:00 +26°C° 0 mm 3 m/S 669 mmHg 38%
    23:00 +26°C° 0 mm 2 m/S 669 mmHg 40%
    Mehr zeigen